Погода в Усть-Ерге

Россия / Архангельская область     62°05′55″N   45°08′53″E
темп.,
°C
ветер,
м/с
пор.,
м/с
влажн.,
%
обл.,
%
осадки,
мм/ч
давл.,
гПа
погр.,
м
10 мая, пн
пн1000:00+6сз4692100 2.9 1015815
03:00+5зсз3793100 3.4 1018420
06:00+5сз3989100 0.0 1021518
09:00+8ссз35606 0.0 10231085
12:00+12сз24395 0.0 10251823
15:00+13зсз22355 0.0 10251900
18:00+13з124160 0.0 10261234
21:00+7ю226187 0.0 102719
11 мая, вт
вт1100:00+5ю236993 0.0 102750
03:00+7ююз31065100 0.0 1028260
06:00+8ююз31064100 0.0 1028358
09:00+10ююз3963100 0.0 1028409
12:00+18юз5746100 0.0 10271133
15:00+14юз2763100 0.0 1028195
18:00+14юз257046 0.0 102897
21:00+12ююз248174 0.0 102862
12 мая, ср
ср1200:00+11юз2787100 0.0 1028115
03:00+9юз229131 0.0 102929
06:00+13юз25778 0.0 1029204
09:00+19зюз245335 0.0 1029740
12:00+23зюз344028 0.0 10281543
15:00+24зюз343620 0.0 10271751
18:00+23зюз11485 0.0 102734
21:00+16юз22675 0.0 102714
13 мая, чт
чт1300:00+14ююз11750 0.0 102812
03:00+12ю11800 0.0 102810
06:00+15ю12690 0.0 1028111
09:00+21ю23510 0.0 1027633
12:00+24ююз24380 0.0 10261809
15:00+26юз24317 0.0 10242533
18:00+22юз394889 0.0 1023326
21:00+18ю2461100 0.0 102368
14 мая, пт
пт1400:00+16ююв227198 0.0 102230
03:00+14ююв22817 0.0 102121
06:00+16ююз2574100 0.0 1021275
09:00+20ю136399 0.1 1020513
12:00+20юв236044 0.0 1019559
15:00+23ю244935 0.0 10181649
18:00+20зюз2258100 0.0 101749
21:00+17юз2475100 0.0 101673